Weather History for Miles City, MT

Change the Weather History Date:

Tuesday, October 1, 2013

  Actual Average Record
Temperature  
Mean Temperature 53 °F 53 °F  
Max Temperature 67 °F 66 °F 95 °F (2011)
Min Temperature 39 °F 39 °F 23 °F (2004)
Degree Days  
Heating Degree Days 12 12  
Month to date heating degree days 12 12  
Since 1 July heating degree days 115 248  
Cooling Degree Days 0 0  
Month to date cooling degree days 0 0  
Year to date cooling degree days 877 728  
Growing Degree Days 2 (Base 50)    
Moisture  
Dew Point 30 °F    
Average Humidity 46    
Maximum Humidity 70    
Minimum Humidity 22    
Precipitation  
Precipitation 0.00 in 0.04 in 2.11 in (1971)
Month to date precipitation 0.00 0.04  
Year to date precipitation 15.43 10.88  
Sea Level Pressure  
Sea Level Pressure 29.90 in    
Wind  
Wind Speed 7 mph (WSW)    
Max Wind Speed 17 mph    
Max Gust Speed 22 mph    
Visibility 10 miles    
Events      
T = Trace of Precipitation, MM = Missing Value Source: NWS Daily Summary

Daily Weather History Graph

Daily Weather History Graph

Search for Another Location

Airport:

Trip Planner

Search our weather history database for the weather conditions in past years. The results will help you decide how hot, cold, wet, or windy it might be!

Date:

Astronomy

Oct. 01, 2013 Rise Set
Actual Time 7:02 AM MDT 6:42 PM MDT
Civil Twilight 6:32 AM MDT 7:12 PM MDT
Nautical Twilight 5:57 AM MDT 7:47 PM MDT
Astronomical Twilight 5:21 AM MDT 8:23 PM MDT
Moon 3:29 AM MDT (10/1) 4:55 PM MDT (10/1)
Length of Visible Light 12h 40m
Length of Day
11h 40m
Waning Crescent, 11% of the Moon is Illuminated
Oct 1
Waning Crescent
Oct 4
New
Oct 11
First Quarter
Oct 18
Full
Oct 26
Last Quarter

Hourly Weather History & Observations

Time (MDT) Temp. Windchill Dew Point Humidity Pressure Visibility Wind Dir Wind Speed Gust Speed Precip Events Conditions
12:53 AM 48.9 °F - 30.9 °F 50% 29.79 in 10.0 mi WSW 13.8 mph - N/A   Clear
1:53 AM 46.9 °F - 30.0 °F 52% 29.83 in 10.0 mi WSW 16.1 mph - N/A   Clear
2:53 AM 43.0 °F 38.8 °F 30.9 °F 62% 29.87 in 10.0 mi West 6.9 mph - N/A   Clear
3:53 AM 41.0 °F 36.4 °F 30.0 °F 65% 29.88 in 10.0 mi West 6.9 mph - N/A   Clear
4:53 AM 41.0 °F 37.1 °F 30.9 °F 67% 29.91 in 10.0 mi West 5.8 mph - N/A   Clear
5:53 AM 39.9 °F 35.1 °F 30.0 °F 68% 29.92 in 10.0 mi WSW 6.9 mph - N/A   Clear
6:53 AM 44.1 °F 39.5 °F 30.0 °F 58% 29.92 in 10.0 mi WSW 8.1 mph - N/A   Clear
7:53 AM 44.1 °F 40.1 °F 30.9 °F 60% 29.93 in 10.0 mi West 6.9 mph - N/A   Clear
8:53 AM 51.1 °F - 30.9 °F 46% 29.95 in 10.0 mi SW 9.2 mph - N/A   Clear
9:53 AM 55.9 °F - 30.9 °F 39% 29.94 in 10.0 mi WSW 10.4 mph - N/A   Clear
10:53 AM 60.1 °F - 30.9 °F 33% 29.94 in 10.0 mi WSW 11.5 mph - N/A   Clear
11:53 AM 62.1 °F - 30.9 °F 31% 29.93 in 10.0 mi SW 9.2 mph - N/A   Clear
12:53 PM 62.1 °F - 28.0 °F 28% 29.91 in 10.0 mi WSW 6.9 mph - N/A   Clear
1:53 PM 66.0 °F - 28.0 °F 24% 29.89 in 10.0 mi West 11.5 mph - N/A   Clear
2:53 PM 66.0 °F - 26.1 °F 22% 29.89 in 10.0 mi West 12.7 mph - N/A   Clear
3:53 PM 66.0 °F - 27.0 °F 23% 29.89 in 10.0 mi West 9.2 mph 16.1 mph N/A   Clear
4:53 PM 66.0 °F - 27.0 °F 23% 29.89 in 10.0 mi SW 5.8 mph - N/A   Clear
5:53 PM 64.0 °F - 28.0 °F 26% 29.89 in 10.0 mi Calm Calm - N/A   Clear
6:53 PM 61.0 °F - 30.9 °F 32% 29.88 in 10.0 mi NW 4.6 mph - N/A   Partly Cloudy
7:53 PM 61.0 °F - 30.9 °F 32% 29.89 in 10.0 mi Calm Calm - N/A   Mostly Cloudy
8:53 PM 61.0 °F - 26.1 °F 26% 29.88 in 10.0 mi Calm Calm - N/A   Scattered Clouds
9:53 PM 54.0 °F - 33.1 °F 45% 29.89 in 10.0 mi SE 5.8 mph - N/A   Clear
10:53 PM 54.0 °F - 32.0 °F 43% 29.90 in 10.0 mi WSW 3.5 mph - N/A   Mostly Cloudy
11:53 PM 52.0 °F - 34.0 °F 50% 29.91 in 10.0 mi NNW 9.2 mph - N/A   Scattered Clouds